Location: Bizous
(43.0667°N, 0.4411°E)
Time: 13:55:51
(UTC+00:00)

Daily predictions for brighter satellites

Satellite Brightness Start Highest point End
(mag) Time Altitude Azimuth Time Altitude Azimuth Time Altitude Azimuth
USA 234 3.8 17:10:08 10° SE 17:16:37 67° SW 17:23:08 10° NW
KORONAS-FOTON 3.8 17:18:21 10° S 17:22:05 61° E 17:25:50 10° NNE
Cosmos 1271 Rocket 3.5 17:20:02 10° SSE 17:23:20 30° E 17:26:39 10° NNE
Cosmos 2058 Rocket 3.0 17:20:53 10° N 17:25:14 64° E 17:29:33 10° SSE
Cosmos 1833 4.3 17:19:41 10° SSW 17:25:22 88° ESE 17:31:08 10° NNE
Starlink AQ 3.7 17:24:24 10° SSW 17:26:58 32° SE 17:29:34 10° ENE
CZ-4 R/B 2.6 17:24:46 10° ESE 17:27:52 22° ENE 17:31:01 10° NNE
Starlink AS 3.5 17:27:02 10° SSW 17:29:37 34° SE 17:32:06 11° ENE
Starlink BA 3.5 17:27:11 10° SSW 17:29:46 34° SE 17:32:15 11° ENE
Starlink AU 3.5 17:27:23 10° SSW 17:29:58 34° SE 17:32:26 11° ENE
Starlink AT 3.5 17:27:34 10° SSW 17:30:09 35° SE 17:32:37 11° ENE
Starlink BB 3.5 17:27:45 10° SSW 17:30:20 35° SE 17:32:47 11° ENE
Starlink BC 3.5 17:27:56 10° SSW 17:30:31 35° SE 17:32:58 11° ENE
Starlink BK 3.5 17:28:06 10° SSW 17:30:42 35° SE 17:33:08 11° ENE
Starlink AY 3.5 17:28:16 10° SSW 17:30:52 35° SE 17:33:19 11° ENE
Starlink AW 3.5 17:28:25 10° SSW 17:31:02 36° SE 17:33:29 11° ENE
Starlink BJ 3.5 17:28:35 10° SSW 17:31:12 36° SE 17:33:37 11° ENE
Starlink AV 3.5 17:28:46 10° SSW 17:31:22 36° SE 17:33:48 11° ENE
Envisat 3.0 17:26:35 10° SSE 17:31:33 59° ENE 17:36:34 10° N
Starlink BD 3.5 17:28:57 10° SSW 17:31:33 36° SE 17:33:58 12° ENE
Starlink BE 3.5 17:29:06 10° SSW 17:31:44 36° SE 17:34:08 12° ENE
Starlink BM 3.4 17:29:18 10° SSW 17:31:55 36° SE 17:34:19 12° ENE
Starlink AX 3.4 17:29:26 10° SSW 17:32:04 37° SE 17:34:29 12° ENE
Starlink BH 3.4 17:29:38 10° SSW 17:32:16 37° SE 17:34:40 12° ENE
Starlink AZ 3.4 17:29:51 10° SSW 17:32:28 37° SE 17:34:51 12° ENE
Starlink BG 3.4 17:30:02 10° SSW 17:32:40 37° SE 17:35:02 12° ENE
Starlink BF 3.4 17:30:13 10° SSW 17:32:50 37° SE 17:35:13 12° ENE
Starlink BL 3.4 17:30:19 10° SSW 17:32:57 37° SE 17:35:21 12° ENE
Cosmos 2333 4.3 17:27:19 10° NNW 17:32:59 57° ENE 17:38:33 10° SE
Starlink AH 3.4 17:30:32 10° SSW 17:33:09 37° SE 17:35:31 12° ENE
Starlink AC 3.4 17:30:40 10° SSW 17:33:19 38° SE 17:35:41 12° ENE
Starlink X 3.4 17:30:53 10° SSW 17:33:31 38° SE 17:35:52 12° ENE
Starlink AE 3.4 17:31:02 10° SSW 17:33:41 38° SE 17:36:02 12° ENE
Starlink Z 3.4 17:31:14 10° SSW 17:33:53 38° SE 17:36:13 12° ENE
Starlink AK 3.4 17:31:26 10° SSW 17:34:05 38° SE 17:36:25 12° ENE
Timation 2 Rocket 4.3 17:28:33 10° S 17:34:10 43° ESE 17:40:01 10° NE
Nadezhda 3 Rocket 4.5 17:28:26 10° N 17:34:15 38° ENE 17:40:04 10° SE
Starlink AL 3.3 17:31:37 10° SSW 17:34:16 39° SE 17:36:36 12° ENE
Starlink AD 3.3 17:31:46 10° SSW 17:34:25 39° SE 17:36:44 13° ENE
Starlink Y 3.3 17:32:08 10° SSW 17:34:48 39° SE 17:37:06 13° ENE
Cosmos 2322 3.7 17:29:19 10° NNW 17:34:58 66° ENE 17:40:35 10° SE
Starlink AG 3.3 17:32:19 10° SSW 17:34:58 39° SE 17:37:17 13° ENE
Starlink W 3.3 17:32:26 10° SSW 17:35:06 40° SE 17:37:26 13° ENE
Starlink AJ 3.3 17:32:39 10° SSW 17:35:18 40° SE 17:37:36 13° ENE
Starlink AM 3.3 17:33:00 10° SSW 17:35:39 40° SE 17:37:56 13° ENE
Starlink AP 3.3 17:33:11 10° SSW 17:35:50 40° SE 17:38:07 13° ENE
Cosmos 1726 3.3 17:32:27 10° NNW 17:35:58 46° W 17:39:27 10° SSW
Starlink AA 3.3 17:33:21 10° SSW 17:36:01 40° SE 17:38:18 13° ENE
Starlink AF 3.3 17:33:31 10° SSW 17:36:13 41° SE 17:38:30 13° ENE
Starlink AB 3.3 17:33:44 10° SSW 17:36:25 41° SE 17:38:40 13° ENE
Starlink AN 3.3 17:33:53 10° SSW 17:36:33 41° SE 17:38:49 13° ENE
Okean-O 2.7 17:32:16 10° SSE 17:36:34 55° ENE 17:40:55 10° N
Cosmos 1602 Rocket 4.3 17:34:01 10° SSE 17:37:55 31° E 17:41:46 10° NNE
SL-16 R/B 4.5 17:33:38 10° NW 17:38:27 29° WSW 17:43:14 10° SSW
Cosmos 1048 Rocket 4.4 17:33:46 10° N 17:38:33 37° ENE 17:43:16 10° SE
ATLAS 5 CENTAUR R/B 2.1 17:34:30 10° SW 17:38:39 55° NW 17:43:14 10° NNE
BREEZE-M DEB (TANK) 3.8 17:38:20 10° SSW 17:40:26 20° SE 17:41:54 12° E
SMAP 3.6 17:37:56 10° S 17:42:32 63° W 17:47:10 10° NNW
Okean O Rocket 4.3 17:41:16 10° SSW 17:44:47 23° W 17:48:22 10° NW
COSMO-SKYMED 1 2.9 17:41:22 10° NNE 17:45:31 44° E 17:49:40 10° S
H-2A R/B 3.8 17:42:06 10° S 17:45:46 49° W 17:49:32 10° NNW
Starlink T 2.9 17:43:24 10° SW 17:46:11 54° SE 17:48:07 17° ENE
Cosmos 2297 Rocket 3.8 17:43:39 10° SE 17:46:31 14° E 17:47:59 13° E
Starlink N 2.8 17:44:28 10° SW 17:47:15 55° SE 17:49:09 18° ENE
Starlink Q 2.8 17:45:30 10° SW 17:48:17 57° SE 17:50:09 19° ENE
Starlink P 2.8 17:46:33 10° SW 17:49:21 59° SE 17:51:11 19° ENE
Starlink U 2.7 17:47:37 10° SW 17:50:25 60° SE 17:52:13 20° ENE
Starlink B 2.7 17:48:37 10° SW 17:51:26 62° SE 17:53:11 20° ENE
Starlink D 2.7 17:49:41 10° SW 17:52:29 64° SE 17:54:13 21° ENE
Cosmos 1626 2.3 17:49:06 10° SSE 17:52:39 47° E 17:56:13 10° NNE
COSMOS 2428 2.8 17:47:51 10° NNW 17:53:31 55° ENE 17:59:07 10° SE
Starlink S 2.7 17:50:46 10° SW 17:53:35 66° SE 17:55:16 21° ENE
Cosmos 2360 Rocket 3.2 17:48:30 10° NW 17:53:57 51° WSW 17:59:21 10° S
Starlink C 2.6 17:51:48 10° SW 17:54:38 68° SE 17:56:17 22° ENE
Cosmos 372 Rocket 3.9 17:49:58 10° SSW 17:55:04 87° ESE 18:00:16 10° NNE
Starlink E 2.6 17:52:55 10° SW 17:55:45 70° SE 17:57:22 23° ENE
Starlink J 2.6 17:54:00 10° SW 17:56:52 72° SE 17:58:28 23° ENE
Cosmos 1174 4.3 17:54:17 10° NW 17:57:22 51° WSW 18:00:53 10° SSE
Starlink V 2.6 17:55:06 10° SW 17:57:56 74° SE 17:59:29 24° ENE
Cosmos 2227 Rocket 3.6 17:54:38 10° SE 17:58:01 16° E 17:58:54 16° E
Cosmos 2298 Rocket 4.1 17:52:49 10° SSW 17:58:07 87° WNW 18:03:28 10° NNE
Starlink H 2.6 17:56:12 10° SW 17:59:04 76° SE 18:00:33 25° ENE
Starlink F 2.5 17:57:20 10° SW 18:00:11 78° SE 18:01:38 26° ENE
Starlink G 2.5 17:58:27 10° SW 18:01:17 81° SE 18:02:43 27° ENE
Cosmos 1626 Rocket 3.4 17:57:36 10° S 18:01:56 73° E 18:06:15 10° NNE
Starlink L 2.5 17:59:33 10° SW 18:02:25 83° SE 18:03:48 27° ENE
YAOGAN 6 2.6 17:59:10 10° SSE 18:02:52 87° ENE 18:06:35 10° N
Starlink A 2.5 18:00:40 10° SW 18:03:33 85° SE 18:04:53 28° ENE
Cosmos 2219 Rocket 2.1 17:58:00 10° NNW 18:03:42 68° ENE 18:09:19 10° SSE
Starlink AR 2.2 18:02:11 10° SW 18:04:41 86° NW 18:05:37 34° NE
Starlink R 2.5 18:01:48 10° SW 18:04:41 87° SE 18:05:59 29° NE
Starlink K 2.5 18:02:54 10° SW 18:05:47 90° SSE 18:07:02 30° NE
Starlink M 2.6 18:03:58 10° SW 18:06:51 88° NNW 18:08:04 31° NE
SKYMED 3 4.5 18:05:01 10° NNE 18:09:23 81° ESE 18:13:43 10° S
Cosmos 1461 3.0 18:06:07 10° NNW 18:10:25 62° NE 18:14:52 10° SE
NOSS 0 Rocket 4.1 18:06:28 10° NNW 18:12:30 49° ENE 18:18:28 10° SE
Cosmos 1242 Rocket 2.5 18:10:00 10° SSW 18:13:27 77° W 18:16:59 10° N
Ariane Rocket 3.9 18:13:03 20° E 18:15:08 26° ENE 18:19:17 10° N
ADEOS Rocket 3.8 18:14:17 10° NNE 18:20:06 34° E 18:26:26 10° SSE
Cosmos 1825 Rocket 4.1 18:17:35 10° SSE 18:21:32 34° E 18:22:34 30° ENE
Cosmos 494 Rocket 4.0 18:19:45 10° N 18:24:46 52° ENE 18:29:45 10° SE
USA 32 4.0 18:21:00 10° S 18:26:07 61° E 18:31:17 10° NNE
Cosmos 1607 4.0 18:20:19 10° SW 18:26:26 77° NW 18:31:35 15° NNE
SJ 16-02 4.2 18:27:40 10° WNW 18:29:19 12° NW 18:30:58 10° NNW
CZ-2D R/B 3.2 18:26:18 10° SSE 18:30:03 58° ENE 18:33:50 10° N
Meteor 1-21 Rocket 4.2 18:27:24 10° S 18:32:48 55° E 18:38:18 10° NNE
Cosmos 2154 Rocket 4.2 18:26:44 10° SSW 18:33:01 74° W 18:39:19 10° N
SKYMED 2 4.2 18:29:18 10° N 18:33:33 55° WNW 18:37:47 10° SSW
ERBS 4.4 18:31:50 10° S 18:32:53 15° SSE 18:32:53 15° SSE
Cosmos 1340 Rocket 2.7 18:30:54 10° N 18:34:51 86° WSW 18:38:48 10° S
DMSP B5D1-3 4.5 18:30:30 13° NNE 18:35:03 60° E 18:40:05 10° S
CSL-04 Debris 4.1 18:31:25 10° SSE 18:36:48 88° ENE 18:42:13 10° NNW
Cosmos 1241 Rocket 4.4 18:33:39 10° NNW 18:39:48 59° NE 18:43:34 24° SE
Meteor 2-17 Rocket 4.4 18:35:01 10° S 18:41:10 89° WNW 18:47:21 10° N
Cosmos 1939 Rocket 2.6 18:37:28 10° SSE 18:41:20 80° ENE 18:45:16 10° N
Cosmos 2333 Rocket 2.8 18:36:57 10° NNW 18:42:34 58° WSW 18:48:05 10° S
Cosmos 1812 Rocket 4.3 18:45:10 10° NNW 18:49:32 54° W 18:53:53 10° S
Cosmos 2237 Rocket 2.1 18:44:06 10° NNW 18:49:41 60° ENE 18:52:01 34° SE
CZ-4C R/B 2.9 18:42:24 10° NW 18:49:44 85° NE 18:58:04 10° SE
YAOGAN 1 3.3 18:50:36 10° S 18:54:48 52° W 18:59:04 10° NNW
Cosmos 1125 Rocket 4.2 18:52:42 10° SW 18:57:45 51° WNW 19:01:57 15° N
Cosmos 1959 Rocket 4.4 18:53:09 10° S 18:59:15 62° E 19:03:28 21° NNE
CZ-4 R/B 3.3 18:59:11 10° SSW 19:02:43 30° W 19:06:21 10° NNW
Meteor 2-10 Rocket 3.5 18:58:31 10° N 19:03:45 62° ENE 19:03:45 62° ENE
Cosmos 2366 rocket 3.8 18:59:50 10° S 19:05:56 67° E 19:09:54 23° NNE
SL-16 R/B 3.5 19:02:56 10° N 19:05:46 25° NNE 19:05:46 25° NNE
FALCON 9 R/B 4.5 18:59:38 10° SSW 19:08:46 19° S 19:11:18 17° SSE
Cosmos 2219 3.1 19:03:57 10° SSW 19:09:33 82° WNW 19:11:31 43° NNE
Cosmos 1269 Rocket 4.0 19:05:36 10° NNW 19:10:54 79° WSW 19:14:40 19° SSE
Cosmos-2242 4.3 19:15:11 10° NNW 19:17:38 32° NNW 19:17:38 32° NNW
ATLAS 5 CENTAUR R/B 4.2 19:22:30 10° NW 19:24:29 13° NNW 19:25:44 12° N
Cosmos 1932 4.3 19:20:16 10° SSW 19:26:35 77° ESE 19:26:47 77° E
Cosmos 2297 Rocket 2.1 19:24:07 10° SSW 19:29:46 81° WNW 19:29:52 81° NW
Cosmos 1727 Rocket 4.4 19:23:58 10° N 19:28:17 46° N 19:28:17 46° N
Cosmos 1980 4.1 19:25:19 10° NNW 19:30:56 62° WSW 19:33:19 34° S
Cosmos 2227 Rocket 2.4 19:35:43 10° SSW 19:40:47 67° WSW 19:40:47 67° WSW
Ariane Rocket 4.1 19:53:13 39° WSW 19:53:52 41° W 19:58:40 10° NNW
ADEOS Rocket 4.1 20:00:57 17° N 20:05:39 45° WNW 20:12:13 10° SW
Cosmos 2237 Rocket 4.4 20:29:15 10° NW 20:33:14 20° W 20:33:59 19° WSW
